Flag for Albania Weather past 2 weeks in Tirana, Albania

Now
37 °F

Scattered clouds.


Feels Like: 32 °F
Forecast: 46 / 59 °F
Wind: 7 mph from South

Location: Tirana Airport

Current Time: Dec 20, 2014 at 8:28:15 AM

Latest Report: Dec 20, 2014 at 7:50 AM


Visibility: N/A

Pressure: 30.24 "Hg

Humidity: 93%

Dew point: 36 °F

Location of TiranaLocation

Historic Weather in Tirana — Graph

°F

Tirana temperature yesterday

Maximum temperature yesterday: 61 °F (at 11:50 AM)
Minimum temperature yesterday: 34 °F (at 5:20 AM)
Average temperature yesterday: 45 °F

Past Weeks' High & Low Weather Summary

 TemperatureHumidityPressure
High63 °F (Dec 6, 1:20 PM)100% (Dec 8, 12:20 AM)30.30 "Hg (Dec 8, 12:20 AM)
Low34 °F (Dec 10, 4:20 AM)31% (Dec 13, 11:50 AM)29.68 "Hg (Dec 9, 1:50 AM)
Average49 °F81%30.03 "Hg
* Reported Dec 5 6:20 AM — Dec 20 6:50 AM, Tirana, Weather by CustomWeather, © 2014

Note: Actual official high and low records may vary slightly from our data, if they occured in-between our weather recording intervals... More about our weather records

Advertising

Tirana weather history for previous 24 hours

 ConditionsComfort  
Time TempWeatherWind HumidityBarometerVisibility
6:50 AM
Dec 20
39 °FPassing clouds.3 mph93%30.24 "Hg4 mi
6:20 AM37 °FPassing clouds.3 mph93%30.21 "Hg4 mi
5:50 AM39 °FClear.3 mph93%30.21 "Hg5 mi
5:20 AM39 °FClear.3 mph93%30.21 "Hg10 mi
4:50 AM37 °FClear.3 mph93%30.21 "Hg10 mi
4:20 AM37 °FClear.3 mph93%30.21 "Hg10 mi
3:50 AM39 °FClear.5 mph93%30.21 "Hg10 mi
3:20 AM37 °FClear.3 mph93%30.21 "Hg10 mi
2:50 AM39 °FClear.3 mph93%30.21 "Hg10 mi
2:20 AM39 °FClear.3 mph93%30.21 "Hg10 mi
1:50 AM39 °FClear.3 mph93%30.21 "Hg10 mi
1:20 AM37 °FClear.3 mph93%30.21 "Hg10 mi
12:50 AM39 °FClear.5 mph93%30.21 "Hg10 mi
12:20 AM37 °FClear.5 mph93%30.21 "Hg10 mi
11:50 PM
Dec 19
39 °FClear.3 mph93%30.24 "Hg4 mi
11:20 PM41 °FClear.6 mph93%30.24 "Hg4 mi
10:50 PM39 °FFog.2 mph93%30.24 "Hg3 mi
10:20 PM41 °FClear.2 mph93%30.24 "Hg4 mi
9:50 PM39 °FClear.3 mph93%30.24 "Hg10 mi
9:20 PM43 °FClear.2 mph87%30.24 "Hg10 mi
8:50 PM43 °FClear.5 mph87%30.24 "Hg10 mi
8:20 PM41 °FClear.5 mph93%30.24 "Hg4 mi
7:50 PM41 °FClear.6 mph87%30.24 "Hg4 mi
7:20 PM43 °FClear.3 mph87%30.24 "Hg10 mi
6:50 PM45 °FClear.2 mph93%30.21 "Hg10 mi
6:20 PM46 °FClear.No wind82%30.21 "Hg10 mi
5:50 PM46 °FClear.3 mph82%30.21 "Hg10 mi
5:20 PM50 °FClear.No wind71%30.21 "Hg10 mi
4:50 PM50 °FClear.2 mph71%30.21 "Hg10 mi
4:20 PM54 °FClear.2 mph63%30.21 "Hg10 mi
3:50 PM55 °FSunny.2 mph59%30.21 "Hg10 mi
3:20 PM59 °FSunny.3 mph55%30.18 "Hg10 mi
2:50 PM59 °FSunny.6 mph51%30.18 "Hg10 mi
2:20 PM59 °FPassing clouds.6 mph48%30.18 "HgN/A
1:50 PM59 °FPassing clouds.7 mph51%30.18 "HgN/A
1:20 PM59 °FPassing clouds.5 mph51%30.18 "HgN/A
12:50 PM59 °FSunny.2 mph55%30.21 "Hg10 mi
12:20 PM59 °FSunny.No wind55%30.21 "Hg10 mi
11:50 AM61 °FSunny.No wind52%30.21 "Hg10 mi
11:20 AM59 °FSunny.No wind55%30.21 "Hg10 mi
10:50 AM55 °FPassing clouds.3 mph67%30.21 "HgN/A
10:20 AM52 °FPassing clouds.3 mph77%30.24 "HgN/A
9:50 AM50 °FSunny.2 mph76%30.24 "Hg10 mi
9:20 AM46 °FSunny.3 mph87%30.24 "Hg10 mi
8:50 AM45 °FSunny.3 mph93%30.21 "Hg10 mi
8:20 AM41 °FClear.3 mph93%30.21 "Hg4 mi
Weather by CustomWeather, © 2014

See weather overviewHow to use our weather pages